Location: Auttagershofen
(48.1940°N, 10.0237°E)
Time: 20:02:24
(UTC+00:00)

Cosmos 468 Rocket - Pass Details

Date: 18 January 2026
Orbit: 740 x 774 km, 74.0° (Epoch: 15 February)

Event Time Altitude Azimuth Distance (km) Brightness Sun altitude
Exits shadow 05:33:22 - 339° (NNW) 2,664 6.5 -14.7°
Reaches altitude 10° 05:34:23 10° 340° (NNW) 2,268 6.1 -14.5°
Maximum altitude 05:39:31 72° 66° (ENE) 787 4.2 -13.7°
Drops below altitude 10° 05:44:39 10° 151° (SSE) 2,270 7.1 -12.8°
Sets 05:47:01 0° 153° (SSE) 3,196 7.9 -12.5°
